格洛纳斯K-12L COSMOS 2501 [GLONASS-K]

导读

COSMOS 2501(编号宇宙2501)是隶属于独联体CIS的格洛纳斯GLONASS导航卫星,于2014年11月30日发射入轨,是俄罗斯推进格洛纳斯全球导航系统组网的重要组成部分。它运行于约19100千米的中地球轨道,为全球尤其是高纬度区域提供高精度定位、测速与授时服务,对维持格洛纳斯星座服务能力、提升系统覆盖性具有关键意义。

基本信息
目录编号:
40315
目录名称:
COSMOS 2501 (GLONASS)
国际标识:
2014-075A
轨道中心:
EARTH
卫星名称:
格洛纳斯K-12L
卫星全名:
格洛纳斯K-12L COSMOS 2501 [GLONASS-K]
卫星状态:
在轨 (已飞行4307 天)
发射日期:
2014-11-30 UTC
国别 :
俄罗斯(独联体) (CIS)
星等 :
--
该卫星已列入 空间交会检测服务 Space Conjunction Data Service (SCDS) ,当前飞行风险评估等级: 无高风险
轨道信息
数据来源 国际轨道数据 AOE轨道数据
星历时间 2026-09-13T09:15:07+0800
2天前
查看轨道信息
2026-09-13T04:00:00+0800
3天前
查看轨道信息
半长轴 25508.089km 25508.025km
偏心率 0.0022172 0.0022183
轨道倾角 63.617° 63.617°
近地点辐角 210.442° 210.362°
升交点赤经 187.332° 187.340°
平近点角 149.431° 341.631°
近地点 19073.395km 19073.303km
远地点 19186.509km 19186.473km
周期 675.735分钟 675.733分钟
每日圈数 2.131012 2.13102
详细信息
平衡模式:
三轴稳定
覆盖范围:
全球
运营商:
列舍特涅夫卫星信息系统
运营商所在国:
俄罗斯
制造商(研发单位):
列舍特涅夫卫星信息系统
制造商所在国:
俄罗斯
使用方式:
暂无
卫星简介
格洛纳斯(GLONASS )是苏联/俄罗斯研制卫星导航系统。标准配置为24颗卫星,其中18颗卫星就能保证该系统为俄罗斯境内用户提供全部服务。该卫星仍在工作。
2D轨道图
3D轨道图
轨道高度分析图
轨道倾角分析图
轨道综合分析图
查看轨道综合分析图
与全量物体交会距离演化趋势 订阅飞行安全评估服务
与全量物体交会风险概率演化趋势 订阅飞行安全评估服务